Regional Weather Roundup
Issued by NWS

Home | Current Version | Previous Version | Text Only | Print | Product List | Glossary Off
Versions: 1 2 3 4 5 6 7 8 9 10 11 12 13 14 15 16 17 18 19 20 21 22 23 24 25 26 27 28 29 30 31 32 33 34 35 36 37 38 39 40 41 42 43 44 45 46 47 48 49 50

000
ASUS43 KOAX 200510
RWRNE

WEATHER ROUNDUP FOR NEBRASKA
NATIONAL WEATHER SERVICE OMAHA NE
1200 AM CDT WED AUG 20 2014

NOTES: SATELLITE DATA IS BEING USED TO AUGMENT CLOUD COVER ABOVE
       12000 FEET.
       "FAIR" INDICATES FEW OR NO CLOUDS BELOW 12,000 FEET WITH NO
       SIGNIFICANT WEATHER AND/OR OBSTRUCTIONS TO VISIBILITY.

  * THESE STATIONS DO NOT REPORT WEATHER SUCH AS RAIN...SNOW OR FOG.

NEZ001>004-019>022-054>056-200600-
NEBRASKA PANHANDLE

CITY           SKY/WX    TMP DP  RH WIND       PRES   REMARKS
SCOTTSBLUFF    MOCLDY    68  58  70 NE5       29.84F
ALLIANCE       PTCLDY    71  54  54 S14       29.84R
CHADRON        MOCLDY    75  50  41 SE12      29.77R
KIMBALL        MOCLDY    62  55  76 SW6       29.90S
SIDNEY         MOCLDY    64  59  83 CALM      29.88S
$$

NEZ057>060-069>072-079>082-200600-
SOUTHWEST NEBRASKA

CITY           SKY/WX    TMP DP  RH WIND       PRES   REMARKS
NORTH PLATTE   CLOUDY    73  63  70 W20G25    29.84R
IMPERIAL       CLOUDY    67  62  84 N8        29.82F
LEXINGTON      CLOUDY    74  67  79 SE7       29.79R
MCCOOK         CLOUDY    79  61  53 N6        29.81R
OGALLALA       LGT RAIN  64  62  93 N10       29.80F
$$

NEZ005>010-023>029-035>040-094-200600-
NORTH CENTRAL NEBRASKA

CITY           SKY/WX    TMP DP  RH WIND       PRES   REMARKS
VALENTINE      CLOUDY    76  67  73 S15       29.79F
AINSWORTH      CLOUDY    73  67  80 SE9       29.81F
BROKEN BOW     CLOUDY    73  70  90 SE6       29.80S
O`NEILL        CLOUDY    73  68  82 SE7       29.81R
ORD            MOCLDY    73  69  87 SE5       29.78S
THEDFORD       CLOUDY    75  69  79 SE8       29.81S
$$

NEZ041-046>049-061>064-073>077-083>087-200600-
SOUTH CENTRAL NEBRASKA

CITY           SKY/WX    TMP DP  RH WIND       PRES   REMARKS
GRAND ISLAND   MOCLDY    76  69  79 SE9       29.79F
AURORA         MOCLDY    74  72  95 E7        29.79S
HASTINGS       MOCLDY    77  65  66 SE12      29.79S
HEBRON         MOCLDY    74  65  73 SE5       29.79R
HOLDREGE       CLOUDY    74  65  73 S7        29.79R
KEARNEY *      MOCLDY    72  66  83 SE9       29.79S
YORK           PTCLDY    73 N/A N/A E7        29.80S
$$

NEZ011>018-030>034-042>045-200600-
NORTHEAST NEBRASKA

CITY           SKY/WX    TMP DP  RH WIND       PRES   REMARKS
NORFOLK        PTCLDY    72  65  78 SE8       29.81S
ALBION         MOCLDY    72  64  77 SE8       29.80S
BLAIR          MOCLDY    74  65  74 E5        29.81S
COLUMBUS *     PTCLDY    70  66  88 E6        29.81S
FREMONT        PTCLDY    74  66  74 E3        29.81S
TEKAMAH        MOCLDY    69  66  90 CALM      29.80S
WAYNE          MOCLDY    68  65  89 CALM      29.82R
$$

NEZ050>053-065>068-078-088>093-200600-
SOUTHEAST NEBRASKA

CITY           SKY/WX    TMP DP  RH WIND       PRES   REMARKS
LINCOLN        PTCLDY    79  70  74 SE6       29.80R
OMAHA EPPLEY   MOCLDY    76  64  66 SE7       29.80S
BEATRICE       CLEAR     76  73  88 SE6       29.80R
FALLS CITY     PTCLDY    75  73  93 SE3       29.79S
NEBRASKA CITY  PTCLDY    75  70  84 SE5       29.81R
PLATTSMOUTH    PTCLDY    74  69  86 E6        29.81S
$$

NEZ044-045-051>053-067-200600-
OMAHA AREA

CITY           SKY/WX    TMP DP  RH WIND       PRES   REMARKS
OMAHA EPPLEY   MOCLDY    76  64  66 SE7       29.80S
BLAIR          MOCLDY    74  65  74 E5        29.81S
FREMONT        PTCLDY    74  66  74 E3        29.81S
MILLARD        PTCLDY    77  68  74 CALM      29.79S
OFFUTT AFB     PTCLDY    72  71  99 E5        29.80R
PLATTSMOUTH    PTCLDY    74  69  86 E6        29.81S
WAHOO          FAIR      70  66  87 CALM      29.80S
$$



USA.gov is the U.S. government's official web portal to all federal, state and local government web resources and services.